Year,Month,Day,Hour,Minute,Value (Times are PST for temperature in C)
2013,04,16,00,00,6.30
2013,04,16,00,01,6.30
2013,04,16,00,02,6.30
2013,04,16,00,03,6.30
2013,04,16,00,04,6.30
2013,04,16,00,05,6.30
2013,04,16,00,06,6.30
2013,04,16,00,07,6.30
2013,04,16,00,08,6.30
2013,04,16,00,09,6.30
2013,04,16,00,10,6.30
2013,04,16,00,11,6.40
2013,04,16,00,12,6.40
2013,04,16,00,13,6.40
2013,04,16,00,14,6.40
2013,04,16,00,15,6.40
2013,04,16,00,16,6.40
2013,04,16,00,17,6.40
2013,04,16,00,18,6.40
2013,04,16,00,19,6.40
2013,04,16,00,20,6.40
2013,04,16,00,21,6.40
2013,04,16,00,22,6.40
2013,04,16,00,23,6.40
2013,04,16,00,24,6.30
2013,04,16,00,25,6.30
2013,04,16,00,26,6.30
2013,04,16,00,27,6.30
2013,04,16,00,28,6.30
2013,04,16,00,29,6.30
2013,04,16,00,30,6.30
2013,04,16,00,31,6.20
2013,04,16,00,32,6.20
2013,04,16,00,33,6.10
2013,04,16,00,34,5.90
2013,04,16,00,35,5.80
2013,04,16,00,36,5.70
2013,04,16,00,37,5.60
2013,04,16,00,38,5.50
2013,04,16,00,39,5.50
2013,04,16,00,40,5.40
2013,04,16,00,41,5.40
2013,04,16,00,42,5.30
2013,04,16,00,43,5.30
2013,04,16,00,44,5.30
2013,04,16,00,45,5.30
2013,04,16,00,46,5.30
2013,04,16,00,47,5.20
2013,04,16,00,48,5.20
2013,04,16,00,49,5.20
2013,04,16,00,50,5.10
2013,04,16,00,51,5.10
2013,04,16,00,52,5.10
2013,04,16,00,53,5.10
2013,04,16,00,54,5.10
2013,04,16,00,55,5.10
2013,04,16,00,56,5.10
2013,04,16,00,57,5.00
2013,04,16,00,58,5.00
2013,04,16,00,59,5.00
2013,04,16,01,00,5.00
2013,04,16,01,01,5.00
2013,04,16,01,02,5.00
2013,04,16,01,03,5.00
2013,04,16,01,04,5.00
2013,04,16,01,05,5.00
2013,04,16,01,06,5.00
2013,04,16,01,07,5.00
2013,04,16,01,08,5.00
2013,04,16,01,09,5.00
2013,04,16,01,10,5.00
2013,04,16,01,11,5.00
2013,04,16,01,12,5.00
2013,04,16,01,13,5.00
2013,04,16,01,14,4.90
2013,04,16,01,15,4.90
2013,04,16,01,16,4.90
2013,04,16,01,17,4.90
2013,04,16,01,18,4.90
2013,04,16,01,19,4.90
2013,04,16,01,20,4.90
2013,04,16,01,21,4.90
2013,04,16,01,22,4.80
2013,04,16,01,23,4.80
2013,04,16,01,24,4.80
2013,04,16,01,25,4.80
2013,04,16,01,26,4.80
2013,04,16,01,27,4.70
2013,04,16,01,28,4.70
2013,04,16,01,29,4.70
2013,04,16,01,30,4.70
2013,04,16,01,31,4.70
2013,04,16,01,32,4.70
2013,04,16,01,33,4.70
2013,04,16,01,34,4.70
2013,04,16,01,35,4.70
2013,04,16,01,36,4.70
2013,04,16,01,37,4.60
2013,04,16,01,38,4.60
2013,04,16,01,39,4.60
2013,04,16,01,40,4.60
2013,04,16,01,41,4.60
2013,04,16,01,42,4.60
2013,04,16,01,43,4.60
2013,04,16,01,44,4.60
2013,04,16,01,45,4.60
2013,04,16,01,46,4.60
2013,04,16,01,47,4.60
2013,04,16,01,48,4.60
2013,04,16,01,49,4.60
2013,04,16,01,50,4.60
2013,04,16,01,51,4.50
2013,04,16,01,52,4.50
2013,04,16,01,53,4.50
2013,04,16,01,54,4.40
2013,04,16,01,55,4.40
2013,04,16,01,56,4.40
2013,04,16,01,57,4.40
2013,04,16,01,58,4.40
2013,04,16,01,59,4.30
2013,04,16,02,00,4.30
2013,04,16,02,01,4.30
2013,04,16,02,02,4.30
2013,04,16,02,03,4.30
2013,04,16,02,04,4.30
2013,04,16,02,05,4.30
2013,04,16,02,06,4.30
2013,04,16,02,07,4.30
2013,04,16,02,08,4.30
2013,04,16,02,09,4.30
2013,04,16,02,10,4.40
2013,04,16,02,11,4.40
2013,04,16,02,12,4.40
2013,04,16,02,13,4.40
2013,04,16,02,14,4.40
2013,04,16,02,15,4.40
2013,04,16,02,16,4.40
2013,04,16,02,17,4.30
2013,04,16,02,18,4.30
2013,04,16,02,19,4.30
2013,04,16,02,20,4.30
2013,04,16,02,21,4.30
2013,04,16,02,22,4.30
2013,04,16,02,23,4.30
2013,04,16,02,24,4.30
2013,04,16,02,25,4.30
2013,04,16,02,26,4.40
2013,04,16,02,27,4.50
2013,04,16,02,28,4.60
2013,04,16,02,29,4.60
2013,04,16,02,30,4.70
2013,04,16,02,31,4.80
2013,04,16,02,32,4.90
2013,04,16,02,33,5.00
2013,04,16,02,34,5.00
2013,04,16,02,35,5.10
2013,04,16,02,36,5.20
2013,04,16,02,37,5.20
2013,04,16,02,38,5.10
2013,04,16,02,39,5.00
2013,04,16,02,40,4.90
2013,04,16,02,41,4.80
2013,04,16,02,42,4.60
2013,04,16,02,43,4.60
2013,04,16,02,44,4.50
2013,04,16,02,45,4.40
2013,04,16,02,46,4.30
2013,04,16,02,47,4.30
2013,04,16,02,48,4.20
2013,04,16,02,49,4.20
2013,04,16,02,50,4.20
2013,04,16,02,51,4.10
2013,04,16,02,52,4.10
2013,04,16,02,53,4.10
2013,04,16,02,54,4.00
2013,04,16,02,55,4.00
2013,04,16,02,56,4.00
2013,04,16,02,57,3.90
2013,04,16,02,58,3.90
2013,04,16,02,59,3.90
2013,04,16,03,00,3.90
2013,04,16,03,01,3.80
2013,04,16,03,02,3.80
2013,04,16,03,03,3.80
2013,04,16,03,04,3.80
2013,04,16,03,05,3.80
2013,04,16,03,06,3.80
2013,04,16,03,07,3.80
2013,04,16,03,08,3.80
2013,04,16,03,09,3.80
2013,04,16,03,10,3.80
2013,04,16,03,11,3.90
2013,04,16,03,12,3.90
2013,04,16,03,13,3.90
2013,04,16,03,14,3.90
2013,04,16,03,15,3.90
2013,04,16,03,16,3.90
2013,04,16,03,17,3.90
2013,04,16,03,18,3.90
2013,04,16,03,19,3.90
2013,04,16,03,20,3.90
2013,04,16,03,21,3.80
2013,04,16,03,22,3.80
2013,04,16,03,23,3.80
2013,04,16,03,24,3.80
2013,04,16,03,25,3.80
2013,04,16,03,26,3.80
2013,04,16,03,27,3.80
2013,04,16,03,28,3.80
2013,04,16,03,29,3.80
2013,04,16,03,30,3.80
2013,04,16,03,31,3.80
2013,04,16,03,32,3.80
2013,04,16,03,33,3.80
2013,04,16,03,34,3.70
2013,04,16,03,35,3.70
2013,04,16,03,36,3.70
2013,04,16,03,37,3.70
2013,04,16,03,38,3.70
2013,04,16,03,39,3.70
2013,04,16,03,40,3.60
2013,04,16,03,41,3.60
2013,04,16,03,42,3.60
2013,04,16,03,43,3.60
2013,04,16,03,44,3.70
2013,04,16,03,45,3.70
2013,04,16,03,46,3.70
2013,04,16,03,47,3.70
2013,04,16,03,48,3.70
2013,04,16,03,49,3.70
2013,04,16,03,50,3.70
2013,04,16,03,51,3.80
2013,04,16,03,52,3.80
2013,04,16,03,53,3.80
2013,04,16,03,54,3.80
2013,04,16,03,55,3.80
2013,04,16,03,56,3.80
2013,04,16,03,57,3.80
2013,04,16,03,58,3.80
2013,04,16,03,59,3.80
2013,04,16,04,00,3.80
2013,04,16,04,01,3.80
2013,04,16,04,02,3.80
2013,04,16,04,03,3.70
2013,04,16,04,04,3.70
2013,04,16,04,05,3.70
2013,04,16,04,06,3.60
2013,04,16,04,07,3.60
2013,04,16,04,08,3.60
2013,04,16,04,09,3.60
2013,04,16,04,10,3.50
2013,04,16,04,11,3.50
2013,04,16,04,12,3.50
2013,04,16,04,13,3.60
2013,04,16,04,14,3.60
2013,04,16,04,15,3.60
2013,04,16,04,16,3.50
2013,04,16,04,17,3.50
2013,04,16,04,18,3.50
2013,04,16,04,19,3.40
2013,04,16,04,20,3.40
2013,04,16,04,21,3.40
2013,04,16,04,22,3.30
2013,04,16,04,23,3.30
2013,04,16,04,24,3.30
2013,04,16,04,25,3.30
2013,04,16,04,26,3.30
2013,04,16,04,27,3.20
2013,04,16,04,28,3.20
2013,04,16,04,29,3.10
2013,04,16,04,30,3.10
2013,04,16,04,31,3.00
2013,04,16,04,32,3.00
2013,04,16,04,33,2.90
2013,04,16,04,34,2.90
2013,04,16,04,35,2.90
2013,04,16,04,36,2.90
2013,04,16,04,37,2.80
2013,04,16,04,38,2.80
2013,04,16,04,39,2.80
2013,04,16,04,40,2.80
2013,04,16,04,41,2.80
2013,04,16,04,42,2.80
2013,04,16,04,43,2.80
2013,04,16,04,44,2.70
2013,04,16,04,45,2.70
2013,04,16,04,46,2.70
2013,04,16,04,47,2.70
2013,04,16,04,48,2.70
2013,04,16,04,49,2.60
2013,04,16,04,50,2.60
2013,04,16,04,51,2.60
2013,04,16,04,52,2.60
2013,04,16,04,53,2.60
2013,04,16,04,54,2.60
2013,04,16,04,55,2.60
2013,04,16,04,56,2.60
2013,04,16,04,57,2.60
2013,04,16,04,58,2.70
2013,04,16,04,59,2.70
2013,04,16,05,00,2.70
2013,04,16,05,01,2.70
2013,04,16,05,02,2.70
2013,04,16,05,03,2.70
2013,04,16,05,04,2.70
2013,04,16,05,05,2.70
2013,04,16,05,06,2.70
2013,04,16,05,07,2.70
2013,04,16,05,08,2.70
2013,04,16,05,09,2.80
2013,04,16,05,10,2.90
2013,04,16,05,11,3.10
2013,04,16,05,12,3.20
2013,04,16,05,13,3.40
2013,04,16,05,14,3.60
2013,04,16,05,15,3.70
2013,04,16,05,16,3.90
2013,04,16,05,17,4.00
2013,04,16,05,18,4.20
2013,04,16,05,19,4.20
2013,04,16,05,20,4.40
2013,04,16,05,21,4.50
2013,04,16,05,22,4.50
2013,04,16,05,23,4.60
2013,04,16,05,24,4.60
2013,04,16,05,25,4.70
2013,04,16,05,26,4.70
2013,04,16,05,27,4.70
2013,04,16,05,28,4.70
2013,04,16,05,29,4.80
2013,04,16,05,30,4.80
2013,04,16,05,31,4.80
2013,04,16,05,32,4.90
2013,04,16,05,33,4.90
2013,04,16,05,34,4.90
2013,04,16,05,35,5.00
2013,04,16,05,36,5.00
2013,04,16,05,37,5.00
2013,04,16,05,38,5.00
2013,04,16,05,39,5.00
2013,04,16,05,40,5.00
2013,04,16,05,41,4.90
2013,04,16,05,42,4.90
2013,04,16,05,43,4.90
2013,04,16,05,44,4.90
2013,04,16,05,45,4.80
2013,04,16,05,46,4.80
2013,04,16,05,47,4.80
2013,04,16,05,48,4.70
2013,04,16,05,49,4.70
2013,04,16,05,50,4.60
2013,04,16,05,51,4.50
2013,04,16,05,52,4.30
2013,04,16,05,53,4.20
2013,04,16,05,54,4.10
2013,04,16,05,55,3.90
2013,04,16,05,56,3.70
2013,04,16,05,57,3.60
2013,04,16,05,58,3.50
2013,04,16,05,59,3.40
2013,04,16,06,00,3.40
2013,04,16,06,01,3.50
2013,04,16,06,02,3.60
2013,04,16,06,03,3.70
2013,04,16,06,04,3.80
2013,04,16,06,05,3.90
2013,04,16,06,06,4.00
2013,04,16,06,07,4.10
2013,04,16,06,08,4.20
2013,04,16,06,09,4.30
2013,04,16,06,10,4.40
2013,04,16,06,11,4.60
2013,04,16,06,12,4.70
2013,04,16,06,13,4.80
2013,04,16,06,14,5.00
2013,04,16,06,15,5.00
2013,04,16,06,16,5.10
2013,04,16,06,17,5.20
2013,04,16,06,18,5.20
2013,04,16,06,19,5.20
2013,04,16,06,20,5.20
2013,04,16,06,21,5.20
2013,04,16,06,22,5.30
2013,04,16,06,23,5.30
2013,04,16,06,24,5.20
2013,04,16,06,25,5.20
2013,04,16,06,26,5.20
2013,04,16,06,27,5.20
2013,04,16,06,28,5.20
2013,04,16,06,29,5.20
2013,04,16,06,30,5.10
2013,04,16,06,31,5.10
2013,04,16,06,32,5.00
2013,04,16,06,33,4.90
2013,04,16,06,34,4.80
2013,04,16,06,35,4.70
2013,04,16,06,36,4.60
2013,04,16,06,37,4.50
2013,04,16,06,38,4.40
2013,04,16,06,39,4.40
2013,04,16,06,40,4.40
2013,04,16,06,41,4.30
2013,04,16,06,42,4.30
2013,04,16,06,43,4.30
2013,04,16,06,44,4.20
2013,04,16,06,45,4.20
2013,04,16,06,46,4.10
2013,04,16,06,47,4.00
2013,04,16,06,48,3.90
2013,04,16,06,49,3.80
2013,04,16,06,50,3.80
2013,04,16,06,51,3.70
2013,04,16,06,52,3.70
2013,04,16,06,53,3.70
2013,04,16,06,54,3.60
2013,04,16,06,55,3.60
2013,04,16,06,56,3.50
2013,04,16,06,57,3.50
2013,04,16,06,58,3.40
2013,04,16,06,59,3.30
2013,04,16,07,00,3.20
2013,04,16,07,01,3.10
2013,04,16,07,02,3.10
2013,04,16,07,03,3.00
2013,04,16,07,04,3.00
2013,04,16,07,05,2.90
2013,04,16,07,06,2.90
2013,04,16,07,07,2.90
2013,04,16,07,08,3.00
2013,04,16,07,09,3.10
2013,04,16,07,10,3.10
2013,04,16,07,11,3.10
2013,04,16,07,12,3.10
2013,04,16,07,13,3.20
2013,04,16,07,14,3.20
2013,04,16,07,15,3.20
2013,04,16,07,16,3.20
2013,04,16,07,17,3.20
2013,04,16,07,18,3.30
2013,04,16,07,19,3.30
2013,04,16,07,20,3.40
2013,04,16,07,21,3.50
2013,04,16,07,22,3.60
2013,04,16,07,23,3.70
2013,04,16,07,24,3.80
2013,04,16,07,25,3.90
2013,04,16,07,26,4.00
2013,04,16,07,27,4.10
2013,04,16,07,28,4.20
2013,04,16,07,29,4.30
2013,04,16,07,30,4.40
2013,04,16,07,31,4.50
2013,04,16,07,32,4.60
2013,04,16,07,33,4.70
2013,04,16,07,34,4.80
2013,04,16,07,35,4.80
2013,04,16,07,36,5.00
2013,04,16,07,37,5.10
2013,04,16,07,38,5.20
2013,04,16,07,39,5.30
2013,04,16,07,40,5.40
2013,04,16,07,41,5.50
2013,04,16,07,42,5.60
2013,04,16,07,43,5.70
2013,04,16,07,44,5.70
2013,04,16,07,45,5.70
2013,04,16,07,46,5.70
2013,04,16,07,47,5.70
2013,04,16,07,48,5.80
2013,04,16,07,49,5.80
2013,04,16,07,50,5.80
2013,04,16,07,51,5.90
2013,04,16,07,52,6.00
2013,04,16,07,53,6.00
2013,04,16,07,54,6.10
2013,04,16,07,55,6.20
2013,04,16,07,56,6.30
2013,04,16,07,57,6.30
2013,04,16,07,58,6.40
2013,04,16,07,59,6.40
2013,04,16,08,00,6.40
2013,04,16,08,01,6.50
2013,04,16,08,02,6.50
2013,04,16,08,03,6.60
2013,04,16,08,04,6.60
2013,04,16,08,05,6.60
2013,04,16,08,06,6.60
2013,04,16,08,07,6.60
2013,04,16,08,08,6.60
2013,04,16,08,09,6.70
2013,04,16,08,10,6.80
2013,04,16,08,11,6.90
2013,04,16,08,12,7.00
2013,04,16,08,13,7.10
2013,04,16,08,14,7.10
2013,04,16,08,15,7.20
2013,04,16,08,16,7.30
2013,04,16,08,17,7.30
2013,04,16,08,18,7.30
2013,04,16,08,19,7.40
2013,04,16,08,20,7.40
2013,04,16,08,21,7.40
2013,04,16,08,22,7.40
2013,04,16,08,23,7.50
2013,04,16,08,24,7.60
2013,04,16,08,25,7.60
2013,04,16,08,26,7.70
2013,04,16,08,27,7.70
2013,04,16,08,28,7.70
2013,04,16,08,29,7.80
2013,04,16,08,30,7.80
2013,04,16,08,31,7.80
2013,04,16,08,32,7.90
2013,04,16,08,33,8.00
2013,04,16,08,34,8.10
2013,04,16,08,35,8.10
2013,04,16,08,36,8.20
2013,04,16,08,37,8.20
2013,04,16,08,38,8.30
2013,04,16,08,39,8.30
2013,04,16,08,40,8.40
2013,04,16,08,41,8.40
2013,04,16,08,42,8.50
2013,04,16,08,43,8.50
2013,04,16,08,44,8.60
2013,04,16,08,45,8.60
2013,04,16,08,46,8.60
2013,04,16,08,47,8.70
2013,04,16,08,48,8.70
2013,04,16,08,49,8.70
2013,04,16,08,50,8.70
2013,04,16,08,51,8.70
2013,04,16,08,52,8.70
2013,04,16,08,53,8.70
2013,04,16,08,54,8.70
2013,04,16,08,55,8.80
2013,04,16,08,56,8.80
2013,04,16,08,57,8.80
2013,04,16,08,58,8.80
2013,04,16,08,59,8.80
2013,04,16,09,00,8.90
2013,04,16,09,01,8.90
2013,04,16,09,02,8.90
2013,04,16,09,03,9.00
2013,04,16,09,04,9.00
2013,04,16,09,05,9.00
2013,04,16,09,06,9.10
2013,04,16,09,07,9.20
2013,04,16,09,08,9.30
2013,04,16,09,09,9.30
2013,04,16,09,10,9.30
2013,04,16,09,11,9.30
2013,04,16,09,12,9.30
2013,04,16,09,13,9.30
2013,04,16,09,14,9.30
2013,04,16,09,15,9.30
2013,04,16,09,16,9.40
2013,04,16,09,17,9.40
2013,04,16,09,18,9.40
2013,04,16,09,19,9.40
2013,04,16,09,20,9.30
2013,04,16,09,21,9.30
2013,04,16,09,22,9.40
2013,04,16,09,23,9.40
2013,04,16,09,24,9.40
2013,04,16,09,25,9.40
2013,04,16,09,26,9.40
2013,04,16,09,27,9.40
2013,04,16,09,28,9.50
2013,04,16,09,29,9.50
2013,04,16,09,30,9.50
2013,04,16,09,31,9.50
2013,04,16,09,32,9.60
2013,04,16,09,33,9.60
2013,04,16,09,34,9.60
2013,04,16,09,35,9.60
2013,04,16,09,36,9.70
2013,04,16,09,37,9.80
2013,04,16,09,38,9.80
2013,04,16,09,39,9.90
2013,04,16,09,40,9.80
2013,04,16,09,41,9.80
2013,04,16,09,42,9.90
2013,04,16,09,43,10.00
2013,04,16,09,44,10.00
2013,04,16,09,45,10.10
2013,04,16,09,46,10.20
2013,04,16,09,47,10.20
2013,04,16,09,48,10.30
2013,04,16,09,49,10.40
2013,04,16,09,50,10.40
2013,04,16,09,51,10.40
2013,04,16,09,52,10.40
2013,04,16,09,53,10.30
2013,04,16,09,54,10.20
2013,04,16,09,55,10.20
2013,04,16,09,56,10.20
2013,04,16,09,57,10.20
2013,04,16,09,58,10.20
2013,04,16,09,59,10.30
2013,04,16,10,00,10.30
2013,04,16,10,01,10.40
2013,04,16,10,02,10.50
2013,04,16,10,03,10.60
2013,04,16,10,04,10.70
2013,04,16,10,05,10.80
2013,04,16,10,06,10.80
2013,04,16,10,07,10.90
2013,04,16,10,08,10.90
2013,04,16,10,09,10.90
2013,04,16,10,10,10.90
2013,04,16,10,11,10.90
2013,04,16,10,12,10.90
2013,04,16,10,13,11.00
2013,04,16,10,14,11.00
2013,04,16,10,15,11.00
2013,04,16,10,16,11.10
2013,04,16,10,17,11.10
2013,04,16,10,18,11.20
2013,04,16,10,19,11.20
2013,04,16,10,20,11.20
2013,04,16,10,21,11.20
2013,04,16,10,22,11.10
2013,04,16,10,23,11.00
2013,04,16,10,24,10.90
2013,04,16,10,25,10.90
2013,04,16,10,26,10.90
2013,04,16,10,27,11.00
2013,04,16,10,28,11.00
2013,04,16,10,29,11.10
2013,04,16,10,30,11.20
2013,04,16,10,31,11.30
2013,04,16,10,32,11.30
2013,04,16,10,33,11.30
2013,04,16,10,34,11.20
2013,04,16,10,35,11.20
2013,04,16,10,36,11.30
2013,04,16,10,37,11.30
2013,04,16,10,38,11.30
2013,04,16,10,39,11.40
2013,04,16,10,40,11.40
2013,04,16,10,41,11.40
2013,04,16,10,42,11.40
2013,04,16,10,43,11.30
2013,04,16,10,44,11.20
2013,04,16,10,45,11.20
2013,04,16,10,46,11.30
2013,04,16,10,47,11.30
2013,04,16,10,48,11.40
2013,04,16,10,49,11.40
2013,04,16,10,50,11.40
2013,04,16,10,51,11.50
2013,04,16,10,52,11.50
2013,04,16,10,53,11.40
2013,04,16,10,54,11.40
2013,04,16,10,55,11.50
2013,04,16,10,56,11.50
2013,04,16,10,57,11.50
2013,04,16,10,58,11.60
2013,04,16,10,59,11.60
2013,04,16,11,00,11.60
2013,04,16,11,01,11.70
2013,04,16,11,02,11.70
2013,04,16,11,03,11.70
2013,04,16,11,04,11.70
2013,04,16,11,05,11.70
2013,04,16,11,06,11.70
2013,04,16,11,07,11.70
2013,04,16,11,08,11.70
2013,04,16,11,09,11.70
2013,04,16,11,10,11.70
2013,04,16,11,11,11.60
2013,04,16,11,12,11.60
2013,04,16,11,13,11.40
2013,04,16,11,14,11.30
2013,04,16,11,15,11.30
2013,04,16,11,16,11.30
2013,04,16,11,17,11.30
2013,04,16,11,18,11.30
2013,04,16,11,19,11.40
2013,04,16,11,20,11.50
2013,04,16,11,21,11.60
2013,04,16,11,22,11.70
2013,04,16,11,23,11.80
2013,04,16,11,24,11.90
2013,04,16,11,25,11.90
2013,04,16,11,26,12.00
2013,04,16,11,27,11.90
2013,04,16,11,28,11.80
2013,04,16,11,29,11.70
2013,04,16,11,30,11.60
2013,04,16,11,31,11.60
2013,04,16,11,32,11.60
2013,04,16,11,33,11.60
2013,04,16,11,34,11.50
2013,04,16,11,35,11.50
2013,04,16,11,36,11.60
2013,04,16,11,37,11.70
2013,04,16,11,38,11.80
2013,04,16,11,39,11.80
2013,04,16,11,40,11.90
2013,04,16,11,41,12.00
2013,04,16,11,42,12.10
2013,04,16,11,43,12.20
2013,04,16,11,44,12.30
2013,04,16,11,45,12.40
2013,04,16,11,46,12.40
2013,04,16,11,47,12.40
2013,04,16,11,48,12.40
2013,04,16,11,49,12.30
2013,04,16,11,50,12.30
2013,04,16,11,51,12.30
2013,04,16,11,52,12.40
2013,04,16,11,53,12.40
2013,04,16,11,54,12.50
2013,04,16,11,55,12.50
2013,04,16,11,56,12.60
2013,04,16,11,57,12.60
2013,04,16,11,58,12.70
2013,04,16,11,59,12.90
2013,04,16,12,00,13.00
2013,04,16,12,01,13.10
2013,04,16,12,02,13.10
2013,04,16,12,03,13.00
2013,04,16,12,04,13.00
2013,04,16,12,05,12.90
2013,04,16,12,06,12.90
2013,04,16,12,07,12.90
2013,04,16,12,08,12.80
2013,04,16,12,09,12.90
2013,04,16,12,10,12.90
2013,04,16,12,11,13.00
2013,04,16,12,12,13.00
2013,04,16,12,13,13.10
2013,04,16,12,14,13.10
2013,04,16,12,15,13.10
2013,04,16,12,16,13.10
2013,04,16,12,17,13.10
2013,04,16,12,18,13.20
2013,04,16,12,19,13.10
2013,04,16,12,20,13.10
2013,04,16,12,21,13.10
2013,04,16,12,22,13.00
2013,04,16,12,23,13.00
2013,04,16,12,24,13.00
2013,04,16,12,25,13.00
2013,04,16,12,26,13.00
2013,04,16,12,27,13.00
2013,04,16,12,28,13.00
2013,04,16,12,29,13.10
2013,04,16,12,30,13.20
2013,04,16,12,31,13.20
2013,04,16,12,32,13.30
2013,04,16,12,33,13.30
2013,04,16,12,34,13.30
2013,04,16,12,35,13.30
2013,04,16,12,36,13.30
2013,04,16,12,37,13.30
2013,04,16,12,38,13.30
2013,04,16,12,39,13.20
2013,04,16,12,40,13.20
2013,04,16,12,41,13.10
2013,04,16,12,42,13.20
2013,04,16,12,43,13.20
2013,04,16,12,44,13.20
2013,04,16,12,45,13.10
2013,04,16,12,46,13.10
2013,04,16,12,47,13.10
2013,04,16,12,48,13.20
2013,04,16,12,49,13.30
2013,04,16,12,50,13.30
2013,04,16,12,51,13.30
2013,04,16,12,52,13.30
2013,04,16,12,53,13.30
2013,04,16,12,54,13.20
2013,04,16,12,55,13.20
2013,04,16,12,56,13.20
2013,04,16,12,57,13.20
2013,04,16,12,58,13.20
2013,04,16,12,59,13.20
2013,04,16,13,00,13.20
2013,04,16,13,01,13.20
2013,04,16,13,02,13.30
2013,04,16,13,03,13.30
2013,04,16,13,04,13.40
2013,04,16,13,05,13.40
2013,04,16,13,06,13.40
2013,04,16,13,07,13.40
2013,04,16,13,08,13.40
2013,04,16,13,09,13.50
2013,04,16,13,10,13.50
2013,04,16,13,11,13.50
2013,04,16,13,12,13.40
2013,04,16,13,13,13.40
2013,04,16,13,14,13.30
2013,04,16,13,15,13.40
2013,04,16,13,16,13.40
2013,04,16,13,17,13.40
2013,04,16,13,18,13.50
2013,04,16,13,19,13.60
2013,04,16,13,20,13.50
2013,04,16,13,21,13.50
2013,04,16,13,22,13.50
2013,04,16,13,23,13.50
2013,04,16,13,24,13.50
2013,04,16,13,25,13.40
2013,04,16,13,26,13.40
2013,04,16,13,27,13.40
2013,04,16,13,28,13.40
2013,04,16,13,29,13.40
2013,04,16,13,30,13.40
2013,04,16,13,31,13.40
2013,04,16,13,32,13.50
2013,04,16,13,33,13.60
2013,04,16,13,34,13.70
2013,04,16,13,35,13.70
2013,04,16,13,36,13.80
2013,04,16,13,37,13.70
2013,04,16,13,38,13.70
2013,04,16,13,39,13.70
2013,04,16,13,40,13.70
2013,04,16,13,41,13.70
2013,04,16,13,42,13.80
2013,04,16,13,43,13.80
2013,04,16,13,44,13.90
2013,04,16,13,45,13.90
2013,04,16,13,46,14.00
2013,04,16,13,47,14.00
2013,04,16,13,48,14.00
2013,04,16,13,49,14.00
2013,04,16,13,50,14.00
2013,04,16,13,51,14.00
2013,04,16,13,52,14.00
2013,04,16,13,53,14.00
2013,04,16,13,54,14.00
2013,04,16,13,55,14.10
2013,04,16,13,56,14.10
2013,04,16,13,57,14.10
2013,04,16,13,58,14.10
2013,04,16,13,59,14.10
2013,04,16,14,00,14.10
2013,04,16,14,01,14.10
2013,04,16,14,02,14.20
2013,04,16,14,03,14.20
2013,04,16,14,04,14.00
2013,04,16,14,05,13.80
2013,04,16,14,06,13.70
2013,04,16,14,07,13.70
2013,04,16,14,08,13.70
2013,04,16,14,09,13.70
2013,04,16,14,10,13.80
2013,04,16,14,11,13.70
2013,04,16,14,12,13.70
2013,04,16,14,13,13.60
2013,04,16,14,14,13.50
2013,04,16,14,15,13.40
2013,04,16,14,16,13.20
2013,04,16,14,17,13.00
2013,04,16,14,18,12.90
2013,04,16,14,19,12.80
2013,04,16,14,20,12.80
2013,04,16,14,21,12.80
2013,04,16,14,22,12.80
2013,04,16,14,23,12.80
2013,04,16,14,24,12.90
2013,04,16,14,25,12.90
2013,04,16,14,26,13.00
2013,04,16,14,27,13.10
2013,04,16,14,28,13.10
2013,04,16,14,29,13.10
2013,04,16,14,30,13.20
2013,04,16,14,31,13.30
2013,04,16,14,32,13.30
2013,04,16,14,33,13.30
2013,04,16,14,34,13.30
2013,04,16,14,35,13.20
2013,04,16,14,36,13.10
2013,04,16,14,37,13.00
2013,04,16,14,38,12.90
2013,04,16,14,39,12.90
2013,04,16,14,40,12.90
2013,04,16,14,41,12.90
2013,04,16,14,42,12.90
2013,04,16,14,43,13.00
2013,04,16,14,44,13.00
2013,04,16,14,45,13.10
2013,04,16,14,46,13.20
2013,04,16,14,47,13.30
2013,04,16,14,48,13.40
2013,04,16,14,49,13.50
2013,04,16,14,50,13.60
2013,04,16,14,51,13.80
2013,04,16,14,52,13.90
2013,04,16,14,53,14.00
2013,04,16,14,54,14.10
2013,04,16,14,55,14.20
2013,04,16,14,56,14.20
2013,04,16,14,57,14.30
2013,04,16,14,58,14.30
2013,04,16,14,59,14.40
2013,04,16,15,00,14.30
2013,04,16,15,01,14.30
2013,04,16,15,02,14.30
2013,04,16,15,03,14.30
2013,04,16,15,04,14.20
2013,04,16,15,05,14.10
2013,04,16,15,06,14.00
2013,04,16,15,07,13.80
2013,04,16,15,08,13.70
2013,04,16,15,09,13.70
2013,04,16,15,10,13.70
2013,04,16,15,11,13.70
2013,04,16,15,12,13.70
2013,04,16,15,13,13.70
2013,04,16,15,14,13.80
2013,04,16,15,15,13.90
2013,04,16,15,16,13.90
2013,04,16,15,17,13.90
2013,04,16,15,18,14.00
2013,04,16,15,19,14.00
2013,04,16,15,20,14.10
2013,04,16,15,21,14.20
2013,04,16,15,22,14.30
2013,04,16,15,23,14.20
2013,04,16,15,24,14.20
2013,04,16,15,25,14.20
2013,04,16,15,26,14.20
2013,04,16,15,27,14.20
2013,04,16,15,28,14.30
2013,04,16,15,29,14.40
2013,04,16,15,30,14.50
2013,04,16,15,31,14.50
2013,04,16,15,32,14.50
2013,04,16,15,33,14.40
2013,04,16,15,34,14.30
2013,04,16,15,35,14.20
2013,04,16,15,36,14.10
2013,04,16,15,37,14.00
2013,04,16,15,38,13.90
2013,04,16,15,39,13.90
2013,04,16,15,40,13.90
2013,04,16,15,41,14.00
2013,04,16,15,42,14.10
2013,04,16,15,43,14.20
2013,04,16,15,44,14.10
2013,04,16,15,45,14.10
2013,04,16,15,46,14.10
2013,04,16,15,47,14.20
2013,04,16,15,48,14.30
2013,04,16,15,49,14.30
2013,04,16,15,50,14.30
2013,04,16,15,51,14.40
2013,04,16,15,52,14.40
2013,04,16,15,53,14.50
2013,04,16,15,54,14.50
2013,04,16,15,55,14.60
2013,04,16,15,56,14.60
2013,04,16,15,57,14.70
2013,04,16,15,58,14.80
2013,04,16,15,59,14.90
2013,04,16,16,00,15.00
2013,04,16,16,01,15.00
2013,04,16,16,02,15.10
2013,04,16,16,03,15.10
2013,04,16,16,04,15.20
2013,04,16,16,05,15.20
2013,04,16,16,06,15.30
2013,04,16,16,07,15.30
2013,04,16,16,08,15.30
2013,04,16,16,09,15.30
2013,04,16,16,10,15.30
2013,04,16,16,11,15.30
2013,04,16,16,12,15.30
2013,04,16,16,13,15.30
2013,04,16,16,14,15.30
2013,04,16,16,15,15.30
2013,04,16,16,16,15.30
2013,04,16,16,17,15.30
2013,04,16,16,18,15.30
2013,04,16,16,19,15.30
2013,04,16,16,20,15.30
2013,04,16,16,21,15.40
2013,04,16,16,22,15.40
2013,04,16,16,23,15.50
2013,04,16,16,24,15.40
2013,04,16,16,25,15.40
2013,04,16,16,26,15.40
2013,04,16,16,27,15.40
2013,04,16,16,28,15.40
2013,04,16,16,29,15.40
2013,04,16,16,30,15.40
2013,04,16,16,31,15.30
2013,04,16,16,32,15.10
2013,04,16,16,33,15.00
2013,04,16,16,34,14.80
2013,04,16,16,35,14.70
2013,04,16,16,36,14.60
2013,04,16,16,37,14.60
2013,04,16,16,38,14.50
2013,04,16,16,39,14.40
2013,04,16,16,40,14.30
2013,04,16,16,41,14.20
2013,04,16,16,42,14.20
2013,04,16,16,43,14.10
2013,04,16,16,44,14.10
2013,04,16,16,45,14.20
2013,04,16,16,46,14.20
2013,04,16,16,47,14.30
2013,04,16,16,48,14.40
2013,04,16,16,49,14.40
2013,04,16,16,50,14.50
2013,04,16,16,51,14.60
2013,04,16,16,52,14.60
2013,04,16,16,53,14.50
2013,04,16,16,54,14.40
2013,04,16,16,55,14.40
2013,04,16,16,56,14.40
2013,04,16,16,57,14.40
2013,04,16,16,58,14.40
2013,04,16,16,59,14.40
2013,04,16,17,00,14.40
2013,04,16,17,01,14.40
2013,04,16,17,02,14.40
2013,04,16,17,03,14.30
2013,04,16,17,04,14.30
2013,04,16,17,05,14.40
2013,04,16,17,06,14.40
2013,04,16,17,07,14.40
2013,04,16,17,08,14.50
2013,04,16,17,09,14.60
2013,04,16,17,10,14.60
2013,04,16,17,11,14.60
2013,04,16,17,12,14.60
2013,04,16,17,13,14.60
2013,04,16,17,14,14.60
2013,04,16,17,15,14.60
2013,04,16,17,16,14.50
2013,04,16,17,17,14.40
2013,04,16,17,18,14.30
2013,04,16,17,19,14.20
2013,04,16,17,20,14.20
2013,04,16,17,21,14.20
2013,04,16,17,22,14.10
2013,04,16,17,23,14.20
2013,04,16,17,24,14.10
2013,04,16,17,25,14.10
2013,04,16,17,26,14.00
2013,04,16,17,27,14.00
2013,04,16,17,28,14.00
2013,04,16,17,29,14.00
2013,04,16,17,30,14.00
2013,04,16,17,31,14.00
2013,04,16,17,32,14.00
2013,04,16,17,33,13.90
2013,04,16,17,34,13.90
2013,04,16,17,35,13.80
2013,04,16,17,36,13.80
2013,04,16,17,37,13.90
2013,04,16,17,38,13.90
2013,04,16,17,39,14.00
2013,04,16,17,40,14.00
2013,04,16,17,41,14.10
2013,04,16,17,42,14.10
2013,04,16,17,43,14.20
2013,04,16,17,44,14.20